Location: Bethune
(34.4150°N, 80.3490°W)
Time: 17:17:18
(UTC-05:00)

ISS - Visible Passes

Search period start: 23 November 2017 00:00
Search period end: 03 December 2017 00:00
Orbit: 402 x 407 km, 51.6° (Epoch: 24 November)

Date Brightness Start Highest point End Pass type
(mag) Time Alt. Az. Time Alt. Az. Time Alt. Az.
23 Nov -0.6 19:32:12 10° SW 19:32:20 11° SW 19:32:20 11° SW visible
24 Nov -2.5 18:40:21 10° SSW 18:42:41 28° SSE 18:42:41 28° SSE visible
25 Nov -1.7 17:49:15 10° SSE 17:51:06 14° SE 17:52:56 10° E visible
25 Nov -1.3 19:24:10 10° WSW 19:25:37 22° W 19:25:37 22° W visible
26 Nov -3.9 18:31:40 10° SW 18:34:56 89° NW 18:35:47 47° NE visible
27 Nov -3.1 17:39:35 10° SSW 17:42:39 39° SE 17:45:44 10° ENE visible
27 Nov -1.2 19:16:50 10° W 19:18:31 17° NW 19:18:31 17° NW visible
28 Nov -2.4 18:23:44 10° WSW 18:26:44 32° NW 18:28:29 19° NNE visible
29 Nov -0.8 19:10:54 10° NNW 19:11:02 10° NNW 19:11:02 10° NNW visible
30 Nov -1.4 18:16:31 10° WNW 18:18:38 16° NNW 18:20:45 10° N visible
